Temperature
15 16 16 16 16 16 16 16 16 16 17 16 17 17 17 17 17 16 16 16 16 16 16 16 16 16 16 16 15 15 15 15 15 15 15 15 15 15 15 15 15 14 15
15 15 16 16 16 16 16 16 16 16 16 16 16 16 17 17 17 16 16 16 16 16 16 16 16 16 16 15 15 15 15 15 15 15 15 15 15 15 15 15 15 14 15
15 15 16 16 16 16 16 16 16 16 16 16 16 16 16 16 16 16 16 16 16 16 16 16 16 16 15 15 15 15 15 15 15 15 15 14 14 15 15 15 15 15 15
15 15 15 16 16 16 16 16 16 16 16 16 16 16 16 16 16 16 16 16 16 16 16 16 15 15 15 15 15 15 15 15 15 15 14 14 13 14 14 14 14 14 14
14 15 15 15 15 15 16 16 16 16 16 16 16 16 16 16 16 16 16 16 16 16 16 15 15 15 15 15 15 15 15 15 15 15 14 14 13 14 14 14 14 14 14
14 15 15 15 15 15 15 15 15 16 16 16 16 16 16 16 16 16 16 16 16 16 15 15 15 15 15 15 15 15 15 15 15 14 14 13 13 14 14 14 14 14 14
14 15 15 15 15 15 15 15 15 15 15 15 16 16 16 16 16 16 15 15 15 15 15 15 15 15 15 15 15 15 15 15 14 14 14 14 14 14 14 14 14 14 14
14 14 15 15 15 15 15 15 15 15 15 15 15 15 15 15 15 15 15 15 15 15 15 15 15 15 15 15 15 15 15 15 14 14 14 14 14 14 14 14 14 14 14
14 14 14 14 14 15 15 15 15 15 15 15 15 15 15 15 15 15 15 15 15 15 15 15 15 15 15 15 15 15 15 15 14 14 14 14 14 14 14 14 14 13 13
14 14 14 14 14 14 14 14 15 15 15 15 15 15 15 15 15 15 15 15 15 15 15 15 15 15 15 15 15 15 14 14 14 14 14 14 14 14 14 14 14 13 13
13 13 14 14 14 14 14 14 14 14 14 14 15 15 15 14 14 14 14 14 14 14 14 15 15 15 15 15 15 14 14 14 13 14 14 14 14 14 14 14 14 13 13
13 13 13 13 14 14 14 14 14 14 14 14 14 14 14 14 14 14 14 14 14 14 14 14 14 14 14 14 14 14 14 14 13 14 14 14 14 14 14 14 14 13 13
12 13 13 13 13 13 13 13 14 14 14 14 14 14 14 14 14 14 14 14 14 14 14 14 14 14 14 14 14 14 14 14 13 14 14 14 14 14 14 14 14 13 13
12 12 12 13 13 13 13 13 13 13 13 13 13 13 13 13 13 13 13 13 13 13 13 14 13 13 13 13 13 13 13 14 14 13 14 14 14 14 14 14 14 14 13
11 12 12 12 12 12 13 13 13 13 13 13 13 13 13 13 13 13 13 13 13 13 13 13 13 13 13 13 13 13 13 13 13 13 13 14 14 14 14 14 14 13 13
11 11 11 12 12 12 12 12 12 12 13 12 12 12 12 12 12 12 12 12 12 12 12 12 12 12 13 13 13 13 13 13 13 13 13 13 14 14 14 13 13 13 13
11 11 11 11 11 11 12 12 12 12 12 12 12 11 11 12 12 12 12 12 12 12 12 12 12 12 12 12 13 13 13 13 13 13 13 13 13 13 13 13 13 13 13
10 10 11 11 11 11 11 11 11 11 11 11 11 11 11 11 11 11 11 11 11 11 11 12 12 12 12 12 12 12 12 12 12 12 12 12 13 13 13 13 13 13 13
10 10 10 10 10 10 11 11 11 10 10 10 10 10 10 11 11 11 11 11 11 11 11 11 11 11 11 11 12 12 12 12 12 12 12 12 12 12 12 12 13 13 13
9 10 10 10 10 10 10 10 10 10 10 10 10 10 10 10 10 10 10 10 10 10 10 10 11 11 11 11 11 11 11 12 12 12 12 12 12 12 12 12 12 12 12
9 9 9 9 10 9 10 10 9 9 9 9 9 9 9 9 10 10 10 10 10 10 10 10 10 10 10 10 10 11 11 11 11 11 11 11 11 11 11 11 11 12 12
9 9 9 9 9 9 9 9 9 9 9 9 9 9 9 9 9 9 9 9 9 9 9 9 9 10 10 9 9 9 10 11 10 10 10 11 11 11 11 11 11 11 11
9 9 9 9 9 9 9 8 8 8 8 8 8 8 8 8 9 9 9 9 9 9 9 9 9 9 9 9 9 8 9 9 9 10 10 10 10 10 10 10 10 10 10
8 8 8 8 8 8 8 8 8 8 8 8 8 8 8 8 8 8 8 8 8 8 8 8 8 8 8 8 8 8 8 8 8 9 9 9 9 9 9 9 10 10 10
8 8 8 8 8 8 8 8 8 7 7 7 7 7 7 8 8 8 8 8 8 8 8 8 8 8 8 8 8 7 7 7 7 7 8 8 8 8 9 9 9 9 9
8 8 8 8 8 8 7 7 7 7 7 7 7 7 7 7 7 7 7 7 7 7 7 7 7 7 7 7 7 7 7 6 6 6 6 7 7 8 8 8 8 8 8
Wind_Speed
2 3 5 4 5 6 6 6 7 7 7 7 7 7 6 6 6 5 5 5 5 5 5 5 5 5 6 6 6 6 6 7 7 7 7 7 7 7 7 6 3 7 9
1 3 6 6 6 5 5 6 6 6 6 6 6 6 5 5 5 5 4 4 4 4 4 5 5 5 5 6 6 6 6 7 6 7 6 6 6 5 6 5 4 6 7
3 4 5 6 6 6 5 5 5 5 5 5 5 5 5 4 4 4 4 3 4 4 4 4 5 5 5 6 6 6 6 6 6 5 3 3 5 5 4 4 4 5 5
4 5 6 6 6 6 6 6 5 4 4 3 3 3 3 4 4 4 3 3 3 3 3 4 5 5 6 6 6 6 6 5 5 4 3 2 3 5 4 4 3 4 4
4 5 6 6 6 6 6 5 5 5 4 3 2 2 2 3 3 4 4 3 3 4 3 4 4 5 6 7 7 7 6 6 5 5 3 2 2 4 3 3 3 4 3
5 5 7 6 6 5 5 5 4 4 4 3 2 1 1 2 3 3 3 3 3 3 4 4 5 5 7 8 8 8 7 7 8 6 4 4 3 4 3 3 3 4 3
6 6 7 8 7 6 5 5 5 4 3 3 3 2 1 1 2 2 3 3 4 4 4 5 6 6 7 8 9 8 8 9 8 6 5 5 4 3 5 5 5 5 4
6 6 7 8 8 8 7 6 5 4 3 3 3 3 2 2 2 2 3 3 4 5 6 6 6 7 8 9 9 10 10 10 9 8 7 6 5 6 7 6 6 6 6
7 7 7 7 6 7 7 7 6 5 4 3 3 4 3 3 2 2 3 4 5 5 6 6 7 7 9 9 10 10 11 11 10 8 8 7 7 9 9 8 8 8 8
8 8 8 7 7 5 5 6 6 5 5 4 3 4 4 3 2 3 4 3 5 5 6 7 7 8 9 10 11 11 11 12 12 10 9 8 9 11 11 11 10 10 10
8 8 8 8 7 6 5 5 4 4 4 3 2 3 4 4 4 4 3 3 4 5 6 7 8 9 10 11 12 12 11 12 12 10 10 8 11 13 13 13 13 12 12
7 8 8 8 8 7 5 4 4 4 3 3 4 4 4 4 4 5 3 4 5 5 7 8 9 9 11 10 11 12 11 12 11 10 10 11 14 15 15 15 14 14 14
6 7 8 8 8 7 6 5 4 4 4 4 4 4 4 4 4 4 3 3 4 5 6 7 8 9 9 8 8 10 11 11 10 10 11 13 15 17 17 17 16 16 16
6 7 8 8 7 7 6 5 4 4 4 4 5 5 4 3 4 4 3 4 4 4 5 6 6 8 9 10 10 10 11 10 10 10 11 12 16 17 18 18 18 18 17
5 7 7 8 7 7 6 5 4 4 4 5 5 5 5 4 4 4 4 4 5 5 5 6 7 7 8 9 9 10 10 11 12 12 10 13 16 18 19 19 19 19 19
5 6 7 7 7 7 5 5 4 5 5 5 4 5 5 4 4 4 4 4 5 5 6 6 7 7 7 7 9 10 10 11 12 12 12 12 16 18 19 19 19 19 19
4 5 6 6 7 6 5 5 4 4 4 4 5 6 6 5 5 4 4 4 5 6 7 6 7 6 7 7 9 10 10 11 11 11 11 11 11 15 18 19 19 19 19
4 5 6 5 6 6 5 4 4 4 4 4 5 5 6 6 6 4 4 4 6 6 5 5 6 6 6 7 8 8 9 9 11 11 10 10 10 10 12 15 17 17 17
3 4 5 5 5 5 4 4 4 4 4 4 5 5 6 7 6 5 4 5 6 5 4 5 5 6 7 7 7 8 8 8 9 9 9 9 9 9 9 11 14 14 15
2 3 4 5 5 5 3 2 2 3 4 5 5 6 7 7 7 5 4 5 5 4 4 5 6 6 6 6 7 8 7 8 7 7 8 7 7 8 9 8 8 9 12
1 3 4 5 5 4 3 3 2 3 3 4 5 7 7 8 7 6 5 5 5 4 5 6 6 6 5 5 5 6 7 7 6 6 5 5 5 6 6 7 7 7 7
1 2 3 4 4 4 3 3 2 2 2 3 4 6 7 8 8 6 6 5 5 5 5 5 5 5 4 3 3 4 4 4 3 4 4 4 5 4 5 5 6 6 6
2 2 2 3 3 3 3 2 1 1 1 2 3 4 6 7 7 7 6 5 5 5 4 5 5 5 5 3 3 3 4 4 4 3 4 3 3 4 4 4 4 4 4
3 2 2 2 2 3 2 2 2 2 1 2 3 3 5 6 7 7 7 6 5 5 5 5 5 5 4 4 3 3 4 5 4 4 3 3 4 5 5 3 3 3 4
3 2 2 2 2 2 1 1 1 1 1 1 2 3 4 4 6 7 7 6 6 5 6 6 5 5 3 3 3 3 4 4 5 5 5 5 4 4 4 3 3 3 4
3 3 3 2 2 1 1 1 1 1 1 1 2 3 3 3 4 7 7 6 6 5 6 6 5 5 4 4 3 3 3 3 4 4 5 6 5 5 5 3 2 3 4
Wind_Direction
62 42 50 79 100 112 114 121 124 122 122 123 123 123 128 135 140 140 143 144 144 141 138 138 136 130 123 118 116 112 106 103 99 94 87 87 92 96 95 90 97 97 88
70 70 71 75 88 103 110 113 119 127 132 133 132 133 135 136 140 145 145 148 156 155 151 153 149 141 135 129 124 119 114 107 102 99 101 106 100 98 100 86 44 81 94
80 81 89 72 76 88 96 102 109 120 136 140 143 148 152 152 151 152 158 162 161 161 163 163 165 159 150 147 142 136 131 124 117 120 173 145 122 114 113 107 94 100 105
81 84 78 74 75 81 84 89 95 101 108 129 138 150 171 177 177 180 182 183 180 176 177 180 176 172 168 165 162 158 153 149 146 182 194 149 135 123 132 130 124 122 119
85 82 73 73 76 79 82 83 82 83 83 94 124 145 180 203 207 208 208 203 202 198 199 195 189 185 184 178 177 175 173 171 179 213 198 186 167 135 161 152 143 136 130
82 75 71 65 68 74 76 76 73 70 68 68 78 98 183 224 234 233 226 223 216 211 215 211 205 201 199 192 191 190 189 188 204 210 210 209 199 161 193 189 181 165 160
79 69 69 58 55 58 64 66 61 57 56 52 48 43 23 298 262 262 254 242 232 229 226 225 224 217 209 204 204 204 201 203 223 220 217 215 208 198 212 209 198 187 183
70 63 64 57 51 48 50 54 51 47 44 37 26 6 333 313 286 265 262 255 250 242 237 234 234 227 216 215 216 214 207 211 227 230 224 220 205 219 225 216 211 206 200
59 53 48 47 48 47 47 43 40 40 36 26 14 1 345 320 290 278 270 262 262 256 250 242 237 233 226 224 224 220 214 217 235 233 230 227 203 220 226 221 219 218 215
52 44 37 35 34 30 33 40 36 37 31 17 10 357 336 300 270 268 267 272 273 265 262 252 244 242 238 233 229 223 219 220 236 236 234 224 210 225 227 227 225 225 224
47 37 29 25 24 21 21 26 30 37 28 0 350 344 312 290 280 266 276 289 283 273 266 260 254 249 246 237 229 223 222 233 235 238 236 222 219 230 232 233 232 230 229
37 28 23 19 15 13 13 14 13 12 10 354 343 333 313 305 298 296 280 271 272 273 264 257 257 249 246 244 228 219 233 237 241 238 235 219 226 233 236 236 235 235 233
32 25 19 14 12 11 7 7 4 360 358 350 345 333 318 307 299 294 287 274 272 268 267 258 250 251 251 251 247 237 240 242 242 241 237 217 228 235 239 238 237 236 236
30 23 17 13 12 10 5 4 1 359 356 352 345 337 325 314 305 299 291 290 284 279 278 272 267 261 259 257 253 250 245 242 244 244 241 219 229 238 242 243 241 238 238
25 17 13 11 11 8 5 360 1 359 353 349 345 342 335 318 305 302 296 295 289 286 282 279 274 273 268 262 257 256 253 250 248 246 245 225 228 237 243 246 245 242 240
20 12 7 9 8 7 7 3 358 354 350 347 349 346 338 326 317 307 301 301 297 293 287 282 280 277 274 269 264 260 257 256 253 251 252 240 226 232 240 245 247 246 244
17 11 7 4 5 7 8 6 1 356 353 355 355 350 346 338 324 314 304 301 301 296 290 285 282 280 277 274 270 267 263 258 257 254 253 254 245 232 234 242 247 248 247
14 11 9 4 3 7 7 2 3 1 3 1 357 354 352 346 337 323 312 306 306 300 294 288 286 280 275 274 273 269 264 261 260 256 254 251 253 250 237 235 243 248 251
12 9 8 7 3 1 0 4 10 10 14 10 5 2 356 352 345 335 321 316 312 306 298 293 289 285 281 278 276 272 268 263 262 260 257 254 253 253 253 238 234 243 252
13 10 8 8 5 356 356 2 17 26 23 16 12 10 2 357 353 344 332 326 322 309 304 300 292 290 286 286 280 275 272 267 263 259 259 258 259 256 255 257 251 247 247
7 6 6 5 4 358 352 354 358 7 8 10 15 11 6 3 358 352 343 334 330 316 311 307 296 290 287 295 284 283 276 268 264 264 263 264 265 268 266 263 260 260 259
314 347 354 358 357 357 352 341 329 331 345 4 11 12 9 6 4 359 353 342 337 324 320 318 313 296 287 290 284 288 282 273 276 276 269 271 278 277 275 273 272 270 272
264 312 330 341 345 347 341 332 321 327 329 4 8 8 7 5 4 1 357 351 343 339 330 323 315 303 295 293 284 279 282 276 304 281 282 276 290 290 286 290 293 303 300
251 273 296 312 330 339 337 334 341 344 342 348 352 352 356 5 6 4 359 356 351 344 337 332 329 312 300 296 299 294 287 293 284 284 281 294 308 299 302 311 315 327 326
243 252 268 286 306 324 322 324 318 317 328 341 353 353 357 4 9 7 1 359 357 350 345 340 336 334 323 311 302 299 289 288 287 278 287 298 303 305 312 316 322 331 337
235 238 247 260 278 296 285 273 283 290 299 324 352 354 354 357 2 5 1 2 0 357 351 346 345 347 344 337 327 318 305 293 292 286 284 299 296 301 307 319 330 348 356
Height
1537 1537 1537 1538 1538 1539 1540 1540 1541 1542 1542 1542 1542 1542 1542 1542 1542 1542 1542 1541 1541 1541 1541 1540 1540 1540 1539 1539 1539 1539 1539 1539 1538 1538 1538 1538 1538 1537 1537 1537 1537 1537 1536
1536 1536 1537 1538 1538 1539 1540 1540 1541 1542 1542 1542 1542 1542 1542 1542 1542 1542 1542 1541 1541 1541 1541 1541 1540 1540 1540 1540 1540 1540 1539 1539 1539 1539 1539 1539 1538 1538 1538 1537 1537 1537 1537
1535 1536 1537 1538 1538 1539 1540 1540 1541 1541 1542 1542 1542 1542 1542 1542 1542 1542 1542 1541 1541 1541 1541 1541 1541 1540 1540 1540 1540 1540 1540 1540 1540 1540 1539 1540 1539 1538 1538 1537 1537 1537 1537
1535 1536 1537 1538 1538 1539 1539 1540 1540 1541 1541 1541 1542 1542 1542 1542 1542 1541 1541 1541 1541 1541 1541 1541 1540 1540 1540 1540 1540 1540 1540 1540 1540 1540 1540 1540 1540 1538 1538 1537 1537 1537 1537
1536 1536 1537 1537 1538 1538 1539 1539 1540 1540 1540 1541 1541 1541 1541 1541 1541 1541 1541 1541 1541 1540 1540 1540 1540 1540 1540 1540 1540 1540 1540 1540 1540 1540 1540 1540 1539 1538 1538 1537 1537 1537 1537
1535 1536 1537 1537 1538 1538 1538 1539 1539 1539 1540 1540 1540 1540 1540 1540 1540 1540 1540 1540 1540 1540 1540 1539 1539 1539 1539 1539 1539 1539 1539 1539 1539 1540 1539 1539 1539 1538 1537 1537 1537 1537 1537
1535 1536 1536 1537 1537 1537 1538 1538 1538 1538 1538 1539 1539 1539 1539 1539 1538 1538 1538 1538 1538 1538 1538 1538 1538 1538 1538 1538 1538 1538 1538 1538 1539 1539 1538 1538 1538 1537 1536 1536 1536 1536 1536
1535 1535 1536 1536 1536 1537 1537 1537 1537 1537 1537 1537 1537 1537 1537 1537 1537 1537 1537 1537 1537 1537 1537 1537 1537 1537 1537 1537 1537 1537 1537 1537 1537 1537 1537 1537 1536 1536 1536 1535 1535 1535 1535
1534 1535 1535 1535 1535 1536 1536 1536 1536 1535 1535 1536 1535 1535 1535 1535 1535 1535 1535 1535 1534 1535 1535 1535 1535 1535 1535 1535 1535 1535 1535 1535 1536 1536 1536 1535 1535 1534 1534 1534 1534 1534 1534
1534 1534 1534 1534 1534 1534 1534 1534 1534 1534 1534 1534 1534 1533 1533 1533 1533 1533 1532 1532 1532 1532 1532 1532 1532 1533 1533 1533 1533 1533 1533 1533 1534 1534 1533 1533 1533 1533 1533 1533 1533 1533 1533
1533 1533 1533 1533 1533 1533 1532 1532 1532 1532 1532 1532 1531 1531 1531 1531 1531 1530 1530 1530 1530 1529 1529 1529 1530 1530 1530 1530 1530 1530 1530 1531 1531 1531 1531 1530 1530 1531 1531 1531 1531 1531 1531
1532 1532 1532 1531 1531 1531 1531 1531 1530 1530 1530 1529 1529 1529 1529 1528 1528 1528 1527 1527 1527 1526 1526 1526 1526 1527 1527 1527 1527 1527 1527 1527 1528 1527 1527 1527 1528 1528 1528 1528 1529 1529 1529
1531 1531 1531 1530 1530 1530 1529 1529 1529 1528 1528 1527 1527 1526 1526 1525 1525 1525 1525 1524 1524 1523 1523 1523 1523 1523 1523 1523 1523 1523 1523 1524 1524 1524 1524 1524 1524 1525 1525 1526 1526 1526 1526
1531 1530 1530 1529 1529 1528 1528 1527 1527 1526 1526 1525 1524 1524 1523 1522 1522 1522 1521 1521 1521 1520 1520 1520 1520 1520 1520 1520 1520 1520 1520 1520 1520 1520 1520 1520 1520 1521 1522 1522 1523 1523 1523
1530 1530 1529 1528 1528 1527 1526 1526 1525 1524 1523 1523 1522 1521 1520 1519 1519 1518 1518 1518 1517 1517 1517 1516 1516 1516 1516 1516 1516 1516 1516 1516 1516 1516 1515 1515 1516 1517 1517 1518 1519 1519 1520
1529 1529 1528 1527 1526 1525 1525 1524 1523 1522 1521 1520 1519 1519 1518 1517 1516 1515 1515 1514 1514 1513 1513 1513 1513 1512 1512 1512 1512 1511 1511 1511 1511 1511 1511 1511 1511 1511 1512 1513 1514 1515 1516
1528 1527 1527 1526 1525 1524 1523 1522 1521 1520 1519 1518 1517 1516 1515 1515 1514 1513 1512 1511 1511 1510 1510 1509 1509 1509 1508 1508 1507 1507 1507 1506 1506 1506 1506 1506 1506 1506 1507 1508 1509 1510 1511
1527 1526 1526 1525 1524 1523 1522 1521 1519 1518 1517 1516 1515 1514 1513 1512 1511 1510 1509 1509 1508 1507 1506 1506 1505 1505 1504 1504 1503 1503 1502 1501 1501 1501 1501 1501 1501 1501 1501 1502 1503 1504 1505
1526 1525 1524 1523 1522 1521 1520 1519 1518 1517 1516 1515 1514 1513 1511 1510 1509 1508 1507 1506 1505 1504 1503 1503 1502 1501 1500 1500 1499 1498 1498 1497 1496 1496 1496 1496 1496 1496 1496 1497 1497 1498 1499
1524 1524 1523 1522 1521 1520 1519 1518 1517 1516 1514 1513 1512 1511 1510 1508 1507 1506 1505 1504 1503 1501 1500 1499 1498 1497 1497 1496 1495 1494 1493 1492 1492 1491 1492 1492 1492 1492 1492 1492 1492 1493 1493
1523 1522 1521 1520 1519 1518 1517 1516 1515 1514 1513 1512 1511 1509 1508 1507 1505 1504 1502 1501 1500 1499 1497 1496 1495 1494 1493 1492 1491 1490 1489 1489 1488 1487 1487 1487 1487 1487 1487 1488 1488 1488 1489
1521 1521 1520 1519 1518 1517 1515 1514 1513 1512 1511 1510 1509 1508 1506 1505 1503 1502 1500 1499 1497 1496 1494 1493 1492 1491 1490 1489 1489 1487 1486 1486 1484 1484 1483 1483 1483 1484 1483 1483 1483 1483 1484
1519 1519 1518 1517 1516 1515 1514 1513 1512 1511 1510 1509 1507 1506 1505 1503 1502 1500 1498 1497 1495 1493 1492 1491 1489 1488 1487 1487 1486 1486 1485 1483 1481 1481 1480 1480 1479 1479 1480 1479 1479 1479 1479
1517 1517 1516 1515 1514 1513 1512 1511 1510 1509 1508 1507 1506 1504 1503 1502 1500 1498 1496 1495 1493 1491 1490 1488 1487 1486 1485 1484 1484 1483 1483 1482 1481 1478 1478 1477 1476 1476 1476 1475 1475 1474 1474
1515 1514 1514 1513 1512 1511 1510 1509 1508 1507 1506 1505 1504 1503 1501 1500 1498 1496 1494 1493 1491 1489 1488 1486 1485 1484 1483 1482 1481 1480 1479 1479 1479 1477 1475 1474 1473 1472 1472 1471 1471 1470 1470
1512 1512 1511 1511 1510 1509 1508 1507 1506 1505 1504 1503 1502 1501 1500 1498 1496 1495 1493 1491 1489 1487 1486 1484 1483 1482 1480 1479 1478 1478 1477 1476 1475 1475 1473 1471 1469 1468 1468 1467 1467 1466 1465